CZ-6A DEB

Satellite information

Favourite Embed

Satellite Type and Status

DEBRISIN ORBIT

Key statistics

Satellite CZ-6A DEB at a glance.

Uptime

1129

Days in orbit

Revolutions

≈ 14.4

Per day

Orbit

SSO

Sun Synchronous Orbit

Inclination

98.7

Latest

Satellite identification and parameters

Extended collection of information and parameters for CZ-6A DEB.

Object identification

Identified? True

Debris? True

Object name: CZ-6A DEB

International designator: 2022-151RM

Object number (NORAD): 54924

Object ID (CCSDS): 54924

Country: PEOPLES REPUBLIC OF CHINA (PRC)

Current information (Y/N): Y

RCS size: SMALL

Orbital parameters

Period: 100.106 minutes

Inclination: 98.7488 deg

SMA: 7141.666 km

Apoapsis: 791.734 km

Periapsis: 735.329 km

RAAN: 19.1496 deg

Eccentricy: 0.00394901

Argument of periapsis: 139.2696 deg

Mean anomaly: 221.1455 deg

Mean motion: 14.38478678 rev/day

Mean motion (dot): 0.00005353 rev/day2

B* drag term: 0.0017507655 1/REarth

Two-line elements (TLE)

Creation date: Dec. 14, 2025, 3:07 a.m.

Reference frame: TEME

Reference center: EARTH

Epoch: Dec. 13, 2025, 1:22 p.m. UTC

TLE line 0: 0 CZ-6A DEB

TLE line 1: 1 54924U 22151RM 25347.55735764 .00005353 00000-0 17508-2 0 9997

TLE line 2: 2 54924 98.7488 19.1496 0039490 139.2696 221.1455 14.38478678160644

Live tracking on map

Real-time ground track for satellite CZ-6A DEB.

In-orbit conjunctions

A list of the most updated potential collisions computed for object CZ-6A DEB.

Target Orbit TCA Probability of collision Miss distance Type
CZ-4 DEB SSO 2024-09-27 03:12:54 0.0002435182 239.0 (m) DEBRIS
SL-8 R/B LEO 2024-08-28 22:40:05 0.0002544951 401.0 (m) ROCKET BODY

Associated space launch

Chinese satellite reported for atmospheric/ocean/environmental/spatial parameter research purposes, details TBD.

CZ-6A DEB was lifted into orbit during the mission ‘Long March 6A | Yunhai 3’, on board a Long March 6A space rocket.

The launch took place on Nov. 11, 2022, 10:52 p.m. from Launch Complex 9A.

For more information about the launch, click the button.

Launch to space Long March 6A | Yunhai 3
Long March 6A | Yunhai 3

Agency: N/A

Status: Launch Successful

Launch date: Nov. 11, 2022, 10:52 p.m. UTC

Rocket: Long March 6A

Launch pad: Launch Complex 9A

Location: Taiyuan Satellite Launch Center, People's Republic of China

...

Latest news about this satellite

There are no fresh news available about this satellite. Check back as we update our databases every day.


Newsletter sign-up

Weekly statistics, charts and insights to help you stay on top of the space industry.